User: anonymous   Login
Location: La Pernelle
(49.6188°N, 1.2999°W)
Time: 20:56:57
(UTC+00:00)
Language:

NOAA 16 DEB - Orbit

View from above orbital plane
View from above orbital plane
View from above satellite
View from above satellite

Ground track
Ground track

The orbit data is extracted from the following two-line orbital elements,

1 42360U 00055RC  22024.11664470  .00003067  00000-0  12671-2 0  9999
2 42360  98.8832 141.2428 0088444 185.9406 174.0731 14.25358436310994
Epoch (UTC): 24 January 2022 02:47:58
Eccentricity: 0.0088444
inclination: 98.8832°
perigee height: 744 km
apogee height: 871 km
right ascension of ascending node: 141.2428°
argument of perigee: 185.9406°
revolutions per day: 14.25358436
mean anomaly at epoch: 174.0731°
orbit number at epoch: 31099

The dashed part of the orbit path shows where the satellite is in the earth's shadow,  

DLR